When you browse on this site, cookies collect data to enhance your experience and personalize the content and advertising you see.
Visit our Privacy Policy to learn more. By continuing to use the site, you agree to this use of cookies and data.
  • In Netherlands
  • List of Countries
  • For 7 days
  • Water Temperature
  • Satellite Maps
  • Weather Map
  • Weather Widgets
  • user-avatar
    Login

    Hourly Weather Wiktoria

    Today, 17 January, Thursday

    Time Temperature Precipitation Wind Pressure Humidity
    00:00 +31°C° 0 mm 2 mps 745 mmHg 36%
    01:00 +30°C° 0 mm 1 mps 745 mmHg 38%
    02:00 +30°C° 0 mm 1 mps 745 mmHg 38%
    03:00 +30°C° 0 mm 1 mps 745 mmHg 38%
    04:00 +31°C° 0 mm 1 mps 744 mmHg 36%
    05:00 +31°C° 0 mm 2 mps 745 mmHg 35%
    06:00 +32°C° 0 mm 2 mps 745 mmHg 34%
    07:00 +33°C° 0 mm 3 mps 745 mmHg 33%
    08:00 +34°C° 0 mm 3 mps 745 mmHg 31%
    09:00 +35°C° 0 mm 3 mps 745 mmHg 30%
    10:00 +36°C° 0 mm 3 mps 746 mmHg 29%
    11:00 +36°C° 0 mm 3 mps 745 mmHg 29%
    12:00 +37°C° 0 mm 4 mps 745 mmHg 28%
    13:00 +39°C° 0 mm 5 mps 745 mmHg 28%
    14:00 +39°C° 0 mm 5 mps 744 mmHg 26%
    15:00 +40°C° 0 mm 4 mps 744 mmHg 25%
    16:00 +40°C° 0 mm 4 mps 743 mmHg 24%
    17:00 +38°C° 0 mm 3 mps 743 mmHg 26%
    18:00 +37°C° 0 mm 3 mps 743 mmHg 28%
    19:00 +36°C° 0 mm 2 mps 743 mmHg 30%
    20:00 +35°C° 0 mm 2 mps 744 mmHg 32%
    21:00 +33°C° 0 mm 3 mps 744 mmHg 35%
    22:00 +30°C° 0 mm 3 mps 744 mmHg 38%
    23:00 +29°C° 0 mm 3 mps 744 mmHg 41%

    Tomorrow, 18 January, Friday

    Time Temperature Precipitation Wind Pressure Humidity
    00:00 +29°C° 0 mm 2 mps 744 mmHg 43%
    01:00 +28°C° 0 mm 2 mps 744 mmHg 46%
    02:00 +27°C° 0.2 mm 2 mps 744 mmHg 51%
    03:00 +26°C° 0.2 mm 3 mps 744 mmHg 57%
    04:00 +25°C° 0.2 mm 4 mps 743 mmHg 62%
    05:00 +26°C° 0.1 mm 3 mps 743 mmHg 58%
    06:00 +27°C° 0.1 mm 3 mps 743 mmHg 54%
    07:00 +28°C° 0.1 mm 2 mps 743 mmHg 50%
    08:00 +31°C° 0 mm 3 mps 743 mmHg 44%
    09:00 +34°C° 0 mm 4 mps 743 mmHg 38%
    10:00 +37°C° 0 mm 5 mps 742 mmHg 31%
    11:00 +39°C° 0 mm 5 mps 742 mmHg 29%
    12:00 +41°C° 0 mm 4 mps 742 mmHg 26%
    13:00 +42°C° 0 mm 3 mps 742 mmHg 24%
    14:00 +41°C° 0 mm 4 mps 742 mmHg 27%
    15:00 +39°C° 0 mm 5 mps 743 mmHg 30%
    16:00 +38°C° 0 mm 6 mps 743 mmHg 33%
    17:00 +36°C° 0 mm 5 mps 744 mmHg 36%
    18:00 +35°C° 0 mm 4 mps 744 mmHg 40%
    19:00 +34°C° 0 mm 3 mps 745 mmHg 43%
    20:00 +30°C° 0 mm 4 mps 746 mmHg 52%
    21:00 +28°C° 0 mm 6 mps 747 mmHg 61%
    22:00 +26°C° 0 mm 7 mps 748 mmHg 69%
    23:00 +23°C° 0 mm 7 mps 748 mmHg 66%

    Day after tomorrow, 19 January, Saturday

    Time Temperature Precipitation Wind Pressure Humidity
    00:00 +22°C° 0 mm 7 mps 748 mmHg 62%
    01:00 +21°C° 0 mm 7 mps 748 mmHg 59%
    02:00 +21°C° 0 mm 7 mps 749 mmHg 58%
    03:00 +20°C° 0 mm 6 mps 749 mmHg 58%
    04:00 +19°C° 0 mm 6 mps 749 mmHg 57%
    05:00 +19°C° 0 mm 6 mps 750 mmHg 60%
    06:00 +19°C° 0 mm 6 mps 750 mmHg 62%
    07:00 +19°C° 0 mm 6 mps 751 mmHg 65%
    08:00 +21°C° 0 mm 6 mps 751 mmHg 56%
    09:00 +24°C° 0 mm 6 mps 751 mmHg 47%
    10:00 +27°C° 0 mm 6 mps 751 mmHg 38%
    11:00 +29°C° 0 mm 6 mps 751 mmHg 33%
    12:00 +32°C° 0 mm 6 mps 751 mmHg 28%
    13:00 +34°C° 0 mm 6 mps 751 mmHg 22%
    14:00 +34°C° 0 mm 6 mps 750 mmHg 22%
    15:00 +34°C° 0 mm 7 mps 750 mmHg 22%
    16:00 +34°C° 0 mm 7 mps 750 mmHg 21%
    17:00 +32°C° 0 mm 7 mps 750 mmHg 25%
    18:00 +29°C° 0 mm 7 mps 750 mmHg 28%
    19:00 +27°C° 0 mm 7 mps 751 mmHg 32%
    20:00 +24°C° 0 mm 7 mps 751 mmHg 37%
    21:00 +22°C° 0 mm 6 mps 752 mmHg 43%
    22:00 +20°C° 0 mm 6 mps 752 mmHg 48%
    23:00 +19°C° 0 mm 6 mps 752 mmHg 52%

    20 January, Sunday

    Time Temperature Precipitation Wind Pressure Humidity
    00:00 +19°C° 0 mm 6 mps 752 mmHg 57%
    01:00 +17°C° 0 mm 5 mps 752 mmHg 61%
    02:00 +16°C° 0 mm 5 mps 752 mmHg 64%
    03:00 +17°C° 0 mm 4 mps 752 mmHg 68%
    04:00 +15°C° 0 mm 4 mps 752 mmHg 71%
    05:00 +17°C° 0 mm 4 mps 752 mmHg 68%
    06:00 +18°C° 0 mm 4 mps 753 mmHg 65%
    07:00 +19°C° 0 mm 4 mps 753 mmHg 62%
    08:00 +22°C° 0 mm 3 mps 753 mmHg 54%
    09:00 +26°C° 0 mm 3 mps 753 mmHg 46%
    10:00 +29°C° 0 mm 2 mps 753 mmHg 38%
    11:00 +31°C° 0 mm 2 mps 752 mmHg 33%
    12:00 +34°C° 0 mm 1 mps 752 mmHg 27%
    13:00 +36°C° 0 mm 1 mps 751 mmHg 22%
    14:00 +37°C° 0 mm 1 mps 750 mmHg 21%
    15:00 +38°C° 0 mm 2 mps 750 mmHg 19%
    16:00 +38°C° 0 mm 2 mps 749 mmHg 18%
    17:00 +37°C° 0 mm 4 mps 749 mmHg 23%
    18:00 +35°C° 0 mm 5 mps 750 mmHg 27%
    19:00 +33°C° 0 mm 6 mps 750 mmHg 31%
    20:00 +30°C° 0 mm 6 mps 750 mmHg 38%
    21:00 +28°C° 0 mm 6 mps 750 mmHg 44%
    22:00 +26°C° 0 mm 6 mps 751 mmHg 50%
    23:00 +25°C° 0 mm 5 mps 750 mmHg 52%

    21 January, Monday

    Time Temperature Precipitation Wind Pressure Humidity
    00:00 +23°C° 0 mm 5 mps 750 mmHg 55%
    01:00 +22°C° 0 mm 4 mps 750 mmHg 57%
    02:00 +21°C° 0 mm 3 mps 749 mmHg 59%
    03:00 +21°C° 0 mm 3 mps 749 mmHg 60%
    04:00 +20°C° 0 mm 2 mps 749 mmHg 62%
    05:00 +21°C° 0 mm 3 mps 749 mmHg 57%
    06:00 +22°C° 0 mm 3 mps 749 mmHg 53%
    07:00 +25°C° 0 mm 3 mps 749 mmHg 49%
    08:00 +28°C° 0 mm 3 mps 749 mmHg 44%
    09:00 +31°C° 0 mm 3 mps 749 mmHg 40%
    10:00 +35°C° 0 mm 3 mps 749 mmHg 36%
    11:00 +37°C° 0 mm 3 mps 748 mmHg 31%
    12:00 +38°C° 0 mm 3 mps 748 mmHg 25%
    13:00 +40°C° 0 mm 3 mps 747 mmHg 19%
    14:00 +40°C° 0 mm 3 mps 747 mmHg 19%
    15:00 +42°C° 0 mm 3 mps 746 mmHg 18%
    16:00 +42°C° 0 mm 3 mps 746 mmHg 17%
    17:00 +40°C° 0 mm 3 mps 746 mmHg 19%
    18:00 +39°C° 0 mm 3 mps 746 mmHg 20%
    19:00 +38°C° 0 mm 3 mps 746 mmHg 22%
    20:00 +35°C° 0 mm 3 mps 747 mmHg 28%
    21:00 +33°C° 0 mm 3 mps 747 mmHg 35%
    22:00 +29°C° 0 mm 3 mps 747 mmHg 41%
    23:00 +29°C° 0 mm 3 mps 747 mmHg 46%

    22 January, Tuesday

    Time Temperature Precipitation Wind Pressure Humidity
    00:00 +28°C° 0 mm 3 mps 747 mmHg 51%
    01:00 +27°C° 0 mm 2 mps 747 mmHg 56%
    02:00 +27°C° 0 mm 3 mps 747 mmHg 60%
    03:00 +27°C° 0 mm 3 mps 746 mmHg 65%
    04:00 +26°C° 0 mm 3 mps 746 mmHg 70%
    05:00 +27°C° 0 mm 4 mps 746 mmHg 67%
    06:00 +28°C° 0 mm 4 mps 746 mmHg 64%
    07:00 +28°C° 0 mm 5 mps 747 mmHg 62%
    08:00 +32°C° 0 mm 4 mps 746 mmHg 52%
    09:00 +35°C° 0 mm 4 mps 746 mmHg 42%
    10:00 +38°C° 0 mm 3 mps 746 mmHg 32%
    11:00 +40°C° 0 mm 3 mps 745 mmHg 27%
    12:00 +42°C° 0 mm 4 mps 745 mmHg 21%
    13:00 +44°C° 0 mm 4 mps 744 mmHg 15%
    14:00 +44°C° 0 mm 4 mps 743 mmHg 15%
    15:00 +44°C° 0 mm 4 mps 743 mmHg 14%
    16:00 +44°C° 0 mm 4 mps 742 mmHg 13%
    17:00 +43°C° 0 mm 3 mps 742 mmHg 15%
    18:00 +42°C° 0 mm 3 mps 742 mmHg 17%
    19:00 +39°C° 0 mm 2 mps 742 mmHg 18%
    20:00 +37°C° 0 mm 3 mps 743 mmHg 21%
    21:00 +36°C° 0 mm 4 mps 743 mmHg 24%
    22:00 +34°C° 0 mm 4 mps 743 mmHg 27%
    23:00 +32°C° 0 mm 4 mps 743 mmHg 31%
    Show more